Regional Weather Roundup
Issued by NWS Upton, NY

Current Version | Previous Version | Graphics & Text | Print | Product List | Glossary Off
Versions: 1 2 3 4 5 6 7 8 9 10 11 12 13 14 15 16 17 18 19 20 21 22 23 24 25 26 27 28 29 30 31 32 33 34 35 36 37 38 39 40 41 42 43 44 45 46 47 48 49 50

294
ASUS41 KOKX 271705
RWROKX

REGIONAL WEATHER ROUNDUP
NATIONAL WEATHER SERVICE NEW YORK NY
100 PM EDT WED JUL 27 2016

NOTE: "FAIR" INDICATES FEW OR NO CLOUDS BELOW 12,000 FEET WITH NO
SIGNIFICANT WEATHER AND/OR OBSTRUCTIONS TO VISIBILITY.

NYZ071-072-176-178-NJZ106-104-271800-
NEW YORK CITY METRO AREA

CITY           SKY/WX    TMP DP  RH WIND       PRES   REMARKS
Central Park   SUNNY     90  61  37 CALM      29.97S HX  90
LaGuardia APRT MOSUNNY   89  61  38 VRB5      29.94S
Kennedy INTL   MOSUNNY   84  63  49 S9        29.96S
Newark/Liberty MOSUNNY   89  59  36 NW6       29.94S
Bronx Bot Gard   N/A    N/A N/A N/A SE2       29.97R
Wall St Helipt SUNNY     88  64  45 SW6       29.95S
Teterboro      MOSUNNY   88  60  38 NW10      29.93S
$$

NYZ177-179-078>081-271800-
LONG ISLAND NEW YORK

CITY           SKY/WX    TMP DP  RH WIND       PRES   REMARKS
Farmingdale    SUNNY     87  63  44 S13       29.94F
MacArthur/ISP  MOSUNNY   85  63  47 S8        29.94S
Shirley        SUNNY     86  61  42 SW9       29.95S
Riverhead      NOT AVBL
Westhampton    SUNNY     86  59  39 S12       29.96S
Southhampton     N/A     82  64  54 S7        29.91S
Bridgehampton    N/A     86  64  48 S2        29.94S
East Hampton   FAIR      83  61  47 S8        29.94S
Montauk          N/A     83  63  50 S7        29.95S
$$

NYZ052-065-067-271800-
HUDSON VALLEY

CITY           SKY/WX    TMP DP  RH WIND       PRES   REMARKS
White Plains   SUNNY     86  60  41 NW6       29.96S
Newburgh       MOSUNNY   84  63  48 CALM      29.98S
Montgomery     MOSUNNY   86  63  45 VRB5      29.96S
Poughkeepsie   SUNNY     89  62  40 SW10      29.94S
Albany         MOSUNNY   84  59  42 W12       29.94F
$$

NJZ001-105-106-008-010-013-015-019>022-104-271800-
NEW JERSEY

CITY           SKY/WX    TMP DP  RH WIND       PRES   REMARKS
Newark/Liberty MOSUNNY   89  59  36 NW6       29.94S
Teterboro      MOSUNNY   88  60  38 NW10      29.93S
Caldwell       SUNNY     88  60  38 W7        29.95F
Morristown     MOSUNNY   88  63  42 SW5       29.95F
Somerville     SUNNY     88  63  43 VRB3      29.94S
Linden         FAIR      88  58  36 CALM      29.96S
Sussex         SUNNY     85  61  44 W7        29.97S
Abdover          N/A     85  61  44 VRB6      29.98S
Trenton        SUNNY     87  65  47 NW7       29.95S
Millville      TSTM      84  75  74 S9        29.93F VSB 3/4 HX  92
Atlantic City  SUNNY     87  72  60 VRB7      29.94F HX  93
Wrightstown    MOSUNNY   87  67  49 N2        29.92S HX  90
Toms River     MOSUNNY   88  69  53 S7        29.96S HX  92
Belmar         SUNNY     87  65  47 VRB3      29.97S
$$

PAZ047>061-062-071-271800-
EASTERN PENNSYLVANIA

CITY           SKY/WX    TMP DP  RH WIND       PRES   REMARKS
Philadelphia   MOSUNNY   90  65  43 VRB5      29.95S HX  92
Allentown      SUNNY     87  64  46 CALM      29.97F
Scranton       SUNNY     87  57  35 N9        29.99F
$$

CTZ002-004>006-009-010-012-RIZ004-006-007-MAZ004-011-015-271800-
SOUTHERN NEW ENGLAND
 IN CT

CITY           SKY/WX    TMP DP  RH WIND       PRES   REMARKS
Bradley INTL   PTSUNNY   90  56  31 N3        29.92F
Hartford       MOSUNNY   91  59  33 SW7       29.90F HX  90
Danbury        SUNNY     85  60  42 VRB7      29.96F
Wtrbury/Oxford MOSUNNY   84  59  42 CALM      29.99S
Bridgeport     SUNNY     84  63  49 S9        29.94S
Meriden        SUNNY     90  58  33 VRB5      29.92F
New Haven      MOSUNNY   83  65  54 S10       29.94S
Chester        FAIR      86  63  45 S9G15     29.94F
Groton         MOSUNNY   82  66  58 S8        29.93S
Wilimantic     NOT AVBL

 IN RI

CITY           SKY/WX    TMP DP  RH WIND       PRES   REMARKS
Providence     PTSUNNY   89  59  36 NW8G18    29.92S
Block Island   SUNNY     81  62  52 S10       29.95S
Westerly       SUNNY     86  57  37 S12       29.94S
 IN MA

CITY           SKY/WX    TMP DP  RH WIND       PRES   REMARKS
Boston         MOSUNNY   86  61  42 SE10      29.90S
Worchester     SUNNY     85  55  35 CALM      29.95F
Westfield      MOSUNNY   91  56  30 VRB7      29.91F
Provincetown   SUNNY     82  64  54 NE7       29.93S
Nantucket      SUNNY     78  69  73 S9        29.93S
$$

ANZ330-335-338-340-345-350-353-355-271800-
COASTAL MARINE OBSERVATIONS


STATION/POSITION TIME  SKY/WX   TEMP    WIND        PRES    VSBY  WAVE
                                AIR SEA DIR/SP/G                  HT/PER
                 (UTC)          (F)     (DEG/KT/KT) (MB)    (MI)  (FT/S)
NY HARB ENTRANCE 1550            77 76   30/  2/  2 1014.2          2/ 6
20S FIRE ISLAND  1550            75 76   40/  4/  4 1013.9          2/ 6
GREAT SOUTH BAY  1615            78 82  170/ 10/ 10   N/A
23 SSW MONTAUK P 1550            75 73   CALM  /  2 1014.6          2/ 6
15 E BARNEGAT LI 1622               78                N/A           2/ 6
HUDSON CANYON    1550            78 79              1014.1          2/ 6
KINGS POINT      1600            81 74              1014.0
EXECUTION ROCKS  1600            79     120/  4/  4   N/A
CENTRAL LI SOUND 1615            76 77  250/  4/  6   N/A           0
EASTERN LI SOUND 1600            74 71  200/  6/  8   N/A
ROBBINS REEF     1606            79     160/ 12/ 13 1013.4
$$


>>>>>>>>>>>>>>>>>>>>>>>>>>>> KEY <<<<<<<<<<<<<<<<<<<<<<<<<<<
>                                                          <
>     SKY/WX - Sky Condition/Present Weather               <
>     TMP    - Temperature in Fahrenheit                   <
>     DP     - Dew Point in Fahrenheit                     <
>     RH     - Relative Humidity in Percent                <
>     WIND   - Direction (from) and Speed in MPH           <
>     PRES   - Mean Sea Level Pressure (inches of Hg)      <
>     WCI    - Wind Chill Index                            <
>     VSB    - VISIBILITY IN MILES                         <
>     HX     - HEAT INDEX                                  <
>     TC     - TEMPERATURE IN CELSIUS                      <
>     VRB    - VARIABLE WIND DIRECTION                     <
>                                                          <
>>>>>>>>>>>>>>>>>>>>>>>>>>>> KEY <<<<<<<<<<<<<<<<<<<<<<<<<<<




USA.gov is the U.S. government's official web portal to all federal, state and local government web resources and services.